Location: Newark
(50.0306°N, 2.3272°E)
Time: 17:36:37
(UTC+00:00)

A-11 Canister half - Pass Details

Date: 17 December 2019
Orbit: 1525 x 1684 km, 47.3° (Epoch: 23 January)

Event Time Altitude Azimuth Distance (km) Brightness Sun altitude
Rises 04:32:03 0° 231° (SW) 4,884 - -29.5°
Reaches altitude 10° 04:35:14 10° 228° (SW) 3,913 - -29.0°
Exits shadow 04:39:07 27° 219° (SW) 2,819 10.0 -28.3°
Maximum altitude 04:44:58 57° 153° (SSE) 1,932 9.5 -27.4°
Drops below altitude 10° 04:54:47 10° 79° (E) 3,945 12.1 -25.8°
Sets 04:58:00 0° 76° (ENE) 4,926 12.8 -25.3°
